Rochester, NY

11:45 PM EDT on September 22, 2019 (GMT -0400)
Greater Rochester International

Weather History for KROC - July, 2019

Change the Weather History Date:

Friday, July 26, 2019

  Actual Average Record
Temperature  
Mean Temperature 73 °F 71 °F  
Max Temperature 84 °F 81 °F 95 °F (1930)
Min Temperature 62 °F 61 °F 47 °F (1975)
Degree Days  
Heating Degree Days 0 0  
Month to date heating degree days 6  
Since 1 June heating degree days 74  
Since 1 July heating degree days 6  
Cooling Degree Days 8 6  
Month to date cooling degree days 156  
Year to date cooling degree days 292  
Since 1 June cooling degree days 262  
Growing Degree Days 23 (Base 50)    
Moisture  
Dew Point 61 °F    
Average Humidity 68    
Maximum Humidity 90    
Minimum Humidity 36    
Precipitation  
Precipitation 0.00 in 0.12 in 1.49 in (1878)
Month to date precipitation 2.77  
Year to date precipitation 18.57  
Snow  
Snow 0.00 in 0.00 in 0.00 in ()
Month to date snowfall 0.0  
Since 1 June snowfall 0.0  
Since 1 July snowfall 0.0  
Snow Depth -    
Sea Level Pressure  
Sea Level Pressure 30.26 in    
Wind  
Wind Speed 5 mph (SW)    
Max Wind Speed 13 mph    
Max Gust Speed 20 mph    
Visibility 10 miles    
Events Thunderstorm    
T = Trace of Precipitation, MM = Missing Value Source: NWS Daily Summary

Daily Weather History Graph

Daily Weather History Graph

Search for Another Location

Airport or City:

Astronomy

Jul. 26, 2019 Rise Set
Actual Time 5:54 AM EDT 8:39 PM EDT
Civil Twilight 5:21 AM EDT 9:11 PM EDT
Nautical Twilight 4:40 AM EDT 9:53 PM EDT
Astronomical Twilight 3:52 AM EDT 10:40 PM EDT
Moon 1:10 AM EDT (7/26) 3:20 PM EDT (7/26)
Length of Visible Light 15h 50m
Length of Day
14h 44m
Waning Crescent, 34% of the Moon is Illuminated
Jul 26
Waning Crescent
Jul 31
New
Aug 7
First Quarter
Aug 15
Full
Aug 23
Last Quarter

Hourly Weather History & Observations

Time (EDT) Temp. Heat Index Dew Point Humidity Pressure Visibility Wind Dir Wind Speed Gust Speed Precip Events Conditions
12:54 AM 66.0 °F - 55.9 °F 70% 30.21 in 10.0 mi WSW 4.6 mph - N/A   Clear
1:54 AM 64.0 °F - 55.9 °F 75% 30.22 in 10.0 mi WSW 5.8 mph - N/A   Clear
2:54 AM 64.0 °F - 57.9 °F 80% 30.23 in 10.0 mi SW 8.1 mph - N/A   Clear
3:54 AM 63.0 °F - 57.0 °F 81% 30.23 in 10.0 mi SW 6.9 mph - N/A   Partly Cloudy
4:54 AM 63.0 °F - 57.0 °F 81% 30.24 in 10.0 mi SW 6.9 mph - N/A   Partly Cloudy
5:54 AM 63.0 °F - 55.9 °F 78% 30.25 in 10.0 mi SW 5.8 mph - N/A   Scattered Clouds
6:54 AM 64.0 °F - 57.0 °F 78% 30.26 in 10.0 mi SW 5.8 mph - N/A   Mostly Cloudy
7:54 AM 66.0 °F - 57.0 °F 73% 30.28 in 10.0 mi SW 6.9 mph - N/A   Partly Cloudy
8:54 AM 71.1 °F - 60.1 °F 68% 30.28 in 10.0 mi SW 8.1 mph - N/A   Partly Cloudy
9:54 AM 73.9 °F - 62.1 °F 66% 30.28 in 10.0 mi WSW 6.9 mph - N/A   Partly Cloudy
10:54 AM 78.1 °F - 63.0 °F 60% 30.28 in 10.0 mi SW 4.6 mph - N/A   Partly Cloudy
11:54 AM 81.0 °F 82.5 °F 64.0 °F 56% 30.28 in 10.0 mi Calm Calm - N/A   Clear
12:54 PM 84.0 °F 84.9 °F 63.0 °F 49% 30.27 in 10.0 mi SW 4.6 mph - N/A   Partly Cloudy
1:54 PM 84.9 °F 85.4 °F 62.1 °F 46% 30.27 in 10.0 mi Calm Calm - N/A   Partly Cloudy
2:54 PM 82.0 °F 83.0 °F 62.1 °F 51% 30.25 in 10.0 mi NE 8.1 mph - N/A   Scattered Clouds
3:36 PM 82.0 °F 83.1 °F 63.0 °F 52% 30.25 in 10.0 mi NE 6.9 mph - N/A Thunderstorm Thunderstorm
3:54 PM 75.0 °F - 64.9 °F 71% 30.27 in 10.0 mi SW 12.7 mph 19.6 mph N/A Thunderstorm Thunderstorm
4:54 PM 75.0 °F - 62.1 °F 64% 30.27 in 10.0 mi Calm Calm - N/A Thunderstorm Thunderstorm
5:10 PM 75.2 °F - 60.8 °F 61% 30.25 in 10.0 mi NW 3.5 mph - N/A   Mostly Cloudy
5:54 PM 72.0 °F - 63.0 °F 73% 30.27 in 10.0 mi Calm Calm - N/A   Mostly Cloudy
6:54 PM 73.9 °F - 64.9 °F 73% 30.25 in 10.0 mi SSE 4.6 mph - N/A   Mostly Cloudy
7:54 PM 73.0 °F - 64.9 °F 76% 30.25 in 10.0 mi SW 4.6 mph - N/A   Mostly Cloudy
8:54 PM 73.0 °F - 64.0 °F 73% 30.25 in 8.0 mi Calm Calm - N/A   Mostly Cloudy
9:54 PM 71.1 °F - 64.9 °F 81% 30.25 in 10.0 mi Calm Calm - N/A   Clear
10:54 PM 66.9 °F - 64.0 °F 90% 30.25 in 10.0 mi Calm Calm - N/A   Clear
11:54 PM 66.9 °F - 63.0 °F 87% 30.25 in 10.0 mi WSW 5.8 mph - N/A   Partly Cloudy